| time (UTC) | temp F | wind direction | speed MPH | gust MPH | rain 1hr in | rain 24hr in | rain mn in | humidity % | barometer mb |
| 20260505063042 | 54 | 260 | 6.0 | 11.0 | 0.00 | 0.01 | 0.00 | 47 | 1003.4 |
| 20260505060034 | 48 | 287 | 5.0 | 11.0 | 0.00 | 0.01 | 0.00 | 61 | 1003.2 |
| 20260505053023 | 47 | 254 | 4.0 | 9.0 | 0.00 | 0.02 | 0.00 | 73 | 1003.0 |
| 20260505050115 | 46 | 244 | 3.0 | 8.0 | 0.00 | 0.03 | 0.00 | 76 | 1002.8 |
| 20260505040053 | 45 | 264 | 4.0 | 12.0 | 0.00 | 0.09 | 0.00 | 76 | 1002.2 |
| 20260505033043 | 45 | 233 | 4.0 | 9.0 | 0.00 | 0.16 | 0.00 | 79 | 1002.1 |
| 20260505030033 | 44 | 234 | 4.0 | 8.0 | 0.00 | 0.22 | 0.00 | 81 | 1002.1 |
| 20260505023023 | 45 | 219 | 4.0 | 9.0 | 0.00 | 0.30 | 0.00 | 79 | 1001.9 |
| 20260505020113 | 45 | 208 | 4.0 | 12.0 | 0.00 | 0.34 | 0.00 | 76 | 1001.8 |
| 20260505013103 | 45 | 230 | 3.0 | 10.0 | 0.00 | 0.36 | 0.00 | 74 | 1001.8 |
| 20260505010053 | 45 | 221 | 2.0 | 9.0 | 0.00 | 0.36 | 0.00 | 73 | 1001.8 |
| 20260505003043 | 45 | 211 | 2.0 | 5.0 | 0.00 | 0.36 | 0.00 | 70 | 1001.8 |
| 20260505000036 | 45 | 214 | 2.0 | 6.0 | 0.00 | 0.36 | 0.00 | 66 | 1001.8 |
| 20260504233026 | 45 | 199 | 1.0 | 5.0 | 0.00 | 0.36 | 0.00 | 59 | 1001.8 |
| 20260504230118 | 45 | 180 | 1.0 | 6.0 | 0.00 | 0.36 | 0.00 | 55 | 1001.9 |
| 20260504223107 | 46 | 198 | 2.0 | 7.0 | 0.00 | 0.36 | 0.00 | 53 | 1001.9 |
| 20260504220117 | 45 | 195 | 2.0 | 6.0 | 0.00 | 0.36 | 0.00 | 57 | 1001.9 |
| 20260504213107 | 45 | 202 | 1.0 | 4.0 | 0.00 | 0.36 | 0.36 | 54 | 1001.9 |
| 20260504210037 | 45 | 202 | 1.0 | 3.0 | 0.00 | 0.36 | 0.36 | 56 | 1001.9 |
| 20260504203028 | 47 | 202 | 1.0 | 3.0 | 0.00 | 0.36 | 0.36 | 54 | 1001.7 |
| 20260504200116 | 49 | 202 | 1.0 | 3.0 | 0.00 | 0.36 | 0.36 | 50 | 1001.7 |
| 20260504193106 | 51 | 220 | 1.0 | 4.0 | 0.00 | 0.36 | 0.36 | 45 | 1001.6 |
| 20260504190057 | 54 | 234 | 2.0 | 9.0 | 0.00 | 0.36 | 0.36 | 41 | 1001.4 |
| 20260504183047 | 56 | 246 | 3.0 | 7.0 | 0.00 | 0.36 | 0.36 | 37 | 1001.5 |
| 20260504180038 | 58 | 270 | 5.0 | 9.0 | 0.00 | 0.36 | 0.36 | 35 | 1001.3 |
| 20260504173029 | 59 | 276 | 7.0 | 18.0 | 0.00 | 0.36 | 0.36 | 35 | 1001.2 |
| 20260504160122 | 62 | 271 | 7.0 | 18.0 | 0.00 | 0.36 | 0.36 | 46 | 1000.2 |
| 20260504070105 | 50 | 180 | 0.0 | 3.0 | 0.00 | 0.35 | 0.35 | 90 | 1000.4 |